TimeCDT,TemperatureF,Dew PointF,Humidity,Sea Level PressureIn,VisibilityMPH,Wind Direction,Wind SpeedMPH,Gust SpeedMPH,PrecipitationIn,Events,Conditions,WindDirDegrees,DateUTC
12:15 AM,84.4,66.0,54,29.92,10.0,ESE,6.9,-,N/A,,Scattered Clouds,120,2013-07-28 05:15:00
12:35 AM,84.6,66.6,55,29.91,10.0,SE,12.7,-,N/A,,Scattered Clouds,140,2013-07-28 05:35:00
12:55 AM,84.2,66.6,55,29.90,10.0,SSE,11.5,-,N/A,,Mostly Cloudy,150,2013-07-28 05:55:00
1:15 AM,83.7,67.1,57,29.90,10.0,SSE,11.5,-,N/A,,Overcast,160,2013-07-28 06:15:00
1:35 AM,83.3,67.8,59,29.90,10.0,SSE,9.2,-,N/A,,Overcast,160,2013-07-28 06:35:00
1:55 AM,82.8,68.4,62,29.89,10.0,SSE,10.4,-,N/A,,Overcast,160,2013-07-28 06:55:00
2:15 AM,82.2,69.6,66,29.89,10.0,SSE,8.1,-,N/A,,Overcast,150,2013-07-28 07:15:00
2:35 AM,81.9,70.0,67,29.90,10.0,SSE,5.8,-,N/A,,Overcast,160,2013-07-28 07:35:00
2:55 AM,81.7,70.5,69,29.90,10.0,SE,9.2,-,N/A,,Overcast,140,2013-07-28 07:55:00
3:15 AM,81.5,70.9,70,29.89,10.0,SE,8.1,-,N/A,,Overcast,140,2013-07-28 08:15:00
3:35 AM,81.0,71.1,72,29.89,10.0,SE,8.1,-,N/A,,Scattered Clouds,140,2013-07-28 08:35:00
3:55 AM,80.6,71.1,73,29.89,10.0,SE,8.1,-,N/A,,Clear,140,2013-07-28 08:55:00
4:15 AM,80.1,71.1,74,29.89,10.0,SSE,8.1,-,N/A,,Mostly Cloudy,150,2013-07-28 09:15:00
4:35 AM,80.1,71.1,74,29.89,10.0,SE,6.9,-,N/A,,Overcast,130,2013-07-28 09:35:00
4:55 AM,79.9,71.1,74,29.88,10.0,SE,6.9,-,N/A,,Overcast,130,2013-07-28 09:55:00
5:15 AM,79.7,71.1,75,29.88,7.0,SE,8.1,-,N/A,,Mostly Cloudy,140,2013-07-28 10:15:00
5:35 AM,79.0,71.1,77,29.88,10.0,ESE,6.9,-,N/A,,Scattered Clouds,120,2013-07-28 10:35:00
5:55 AM,78.4,70.9,77,29.88,10.0,SE,5.8,-,N/A,,Scattered Clouds,130,2013-07-28 10:55:00
6:15 AM,78.1,70.9,78,29.89,7.0,ESE,9.2,-,N/A,,Clear,120,2013-07-28 11:15:00
6:35 AM,77.7,70.9,79,29.90,7.0,ESE,6.9,-,N/A,,Mostly Cloudy,120,2013-07-28 11:35:00
6:55 AM,77.7,71.1,80,29.90,7.0,ESE,6.9,-,N/A,,Overcast,110,2013-07-28 11:55:00
7:15 AM,77.9,71.2,80,29.91,7.0,ESE,9.2,-,N/A,,Overcast,120,2013-07-28 12:15:00
7:35 AM,78.1,71.2,79,29.91,7.0,SE,8.1,-,N/A,,Overcast,130,2013-07-28 12:35:00
7:55 AM,78.4,71.2,78,29.91,7.0,SE,11.5,-,N/A,,Overcast,140,2013-07-28 12:55:00
8:15 AM,79.0,71.1,77,29.92,7.0,SE,6.9,-,N/A,,Overcast,140,2013-07-28 13:15:00
8:35 AM,79.7,70.9,74,29.93,7.0,SSE,11.5,-,N/A,,Overcast,150,2013-07-28 13:35:00
8:55 AM,80.4,70.7,72,29.93,7.0,SSE,9.2,16.1,N/A,,Overcast,160,2013-07-28 13:55:00
9:15 AM,81.5,70.5,69,29.93,7.0,SE,10.4,-,N/A,,Mostly Cloudy,140,2013-07-28 14:15:00
9:35 AM,82.6,70.3,66,29.93,7.0,SSE,10.4,-,N/A,,Scattered Clouds,160,2013-07-28 14:35:00
9:55 AM,84.0,70.0,63,29.93,10.0,SE,6.9,-,N/A,,Clear,140,2013-07-28 14:55:00
10:15 AM,85.8,69.4,58,29.93,10.0,SSE,10.4,-,N/A,,Clear,160,2013-07-28 15:15:00
10:35 AM,87.1,68.9,55,29.93,10.0,SSE,9.2,-,N/A,,Clear,150,2013-07-28 15:35:00
10:55 AM,88.2,67.8,51,29.93,7.0,SE,8.1,-,N/A,,Clear,130,2013-07-28 15:55:00
11:15 AM,89.8,66.7,46,29.93,10.0,SE,9.2,-,N/A,,Clear,140,2013-07-28 16:15:00
11:35 AM,91.2,65.5,42,29.93,10.0,South,8.1,17.3,N/A,,Clear,180,2013-07-28 16:35:00
11:55 AM,92.1,64.4,40,29.93,10.0,SSE,6.9,-,N/A,,Clear,150,2013-07-28 16:55:00
12:15 PM,93.2,63.1,37,29.92,10.0,SSE,5.8,-,N/A,,Clear,160,2013-07-28 17:15:00
12:35 PM,94.6,61.5,33,29.92,10.0,ESE,8.1,18.4,N/A,,Clear,120,2013-07-28 17:35:00
12:55 PM,95.4,60.1,31,29.91,10.0,SSE,9.2,-,N/A,,Clear,160,2013-07-28 17:55:00
1:15 PM,95.7,58.8,29,29.91,10.0,SSE,10.4,18.4,N/A,,Clear,160,2013-07-28 18:15:00
1:35 PM,96.6,57.0,27,29.90,10.0,SE,11.5,17.3,N/A,,Scattered Clouds,140,2013-07-28 18:35:00
1:55 PM,97.7,55.9,25,29.89,10.0,SE,5.8,9.2,N/A,,Scattered Clouds,140,2013-07-28 18:55:00
2:15 PM,99.0,53.6,22,29.88,10.0,SE,6.9,16.1,N/A,,Scattered Clouds,140,2013-07-28 19:15:00
2:35 PM,99.5,52.5,21,29.88,10.0,SE,11.5,18.4,N/A,,Clear,130,2013-07-28 19:35:00
2:55 PM,100.0,49.3,18,29.87,10.0,SE,9.2,-,N/A,,Clear,130,2013-07-28 19:55:00
3:15 PM,100.9,45.3,15,29.86,10.0,ESE,6.9,19.6,N/A,,Clear,110,2013-07-28 20:15:00
3:35 PM,101.5,47.3,16,29.85,10.0,ESE,9.2,-,N/A,,Clear,110,2013-07-28 20:35:00
3:55 PM,101.3,44.6,15,29.84,10.0,SE,4.6,-,N/A,,Clear,140,2013-07-28 20:55:00
4:15 PM,101.7,45.0,15,29.84,10.0,ESE,13.8,19.6,N/A,,Scattered Clouds,120,2013-07-28 21:15:00
4:35 PM,101.8,42.4,13,29.83,10.0,SSE,9.2,-,N/A,,Clear,150,2013-07-28 21:35:00
4:55 PM,101.7,40.1,12,29.83,10.0,SE,5.8,18.4,N/A,,Clear,140,2013-07-28 21:55:00
5:15 PM,102.0,39.9,12,29.83,10.0,East,13.8,21.9,N/A,,Clear,100,2013-07-28 22:15:00
5:35 PM,102.2,40.3,12,29.83,10.0,SE,15.0,21.9,N/A,,Clear,130,2013-07-28 22:35:00
5:55 PM,102.0,39.0,11,29.82,10.0,SSE,18.4,21.9,N/A,,Clear,150,2013-07-28 22:55:00
6:15 PM,101.3,37.9,11,29.82,10.0,SSE,11.5,16.1,N/A,,Clear,160,2013-07-28 23:15:00
6:35 PM,100.8,42.6,14,29.82,10.0,SE,15.0,20.7,N/A,,Clear,130,2013-07-28 23:35:00
6:55 PM,100.4,42.6,14,29.83,10.0,SSE,11.5,-,N/A,,Clear,150,2013-07-28 23:55:00
7:15 PM,99.3,50.9,20,29.83,10.0,SE,17.3,24.2,N/A,,Clear,140,2013-07-29 00:15:00
7:35 PM,97.0,56.7,26,29.84,10.0,SE,16.1,21.9,N/A,,Clear,140,2013-07-29 00:35:00
7:55 PM,95.4,59.9,31,29.85,10.0,SE,18.4,23.0,N/A,,Clear,130,2013-07-29 00:55:00
8:15 PM,93.6,62.4,35,29.85,10.0,SE,19.6,25.3,N/A,,Clear,130,2013-07-29 01:15:00
8:35 PM,91.9,64.2,40,29.86,10.0,SE,18.4,26.5,N/A,,Clear,130,2013-07-29 01:35:00
8:55 PM,90.9,65.1,42,29.87,10.0,SE,15.0,23.0,N/A,,Clear,130,2013-07-29 01:55:00
9:15 PM,90.0,65.7,44,29.88,10.0,SE,18.4,21.9,N/A,,Clear,130,2013-07-29 02:15:00
9:35 PM,89.1,66.2,47,29.88,10.0,SE,16.1,26.5,N/A,,Clear,130,2013-07-29 02:35:00
9:55 PM,88.2,66.4,48,29.89,10.0,SE,13.8,20.7,N/A,,Clear,130,2013-07-29 02:55:00
10:15 PM,87.4,66.6,50,29.90,10.0,SE,16.1,26.5,N/A,,Clear,130,2013-07-29 03:15:00
10:35 PM,86.4,67.1,52,29.91,10.0,SE,15.0,25.3,N/A,,Clear,140,2013-07-29 03:35:00
10:55 PM,85.6,67.6,55,29.91,10.0,SE,12.7,19.6,N/A,,Clear,140,2013-07-29 03:55:00
11:15 PM,84.9,68.2,57,29.93,10.0,SE,11.5,-,N/A,,Clear,130,2013-07-29 04:15:00
11:35 PM,84.2,68.7,60,29.93,10.0,SE,16.1,25.3,N/A,,Clear,140,2013-07-29 04:35:00
11:55 PM,83.3,68.9,62,29.93,10.0,SE,11.5,-,N/A,,Clear,130,2013-07-29 04:55:00